Location: Unspecified
(0.0000°N, 0.0000°E)
Time: 21:23:24
(UTC+00:00)

deb Kosmos-1275 - Visible Passes

Search period start: 09 June 2026 00:00
Search period end: 19 June 2026 00:00
Orbit: 907 x 1055 km, 82.9° (Epoch: 9 June)

Date Brightness Start Highest point End Pass type
(mag) Time Alt. Az. Time Alt. Az. Time Alt. Az.
9 Jun ? 19:54:17 10° NNW 20:00:39 50° W 20:06:23 13° SSW visible
10 Jun ? 18:36:43 10° NNE 18:42:30 32° E 18:48:17 10° SSE visible
10 Jun ? 20:22:42 10° NW 20:27:40 23° W 20:32:41 10° SW visible
11 Jun ? 19:02:55 10° N 19:09:30 71° E 19:16:07 10° S visible
12 Jun ? 19:30:05 10° NNW 19:36:31 54° W 19:42:59 10° S visible
13 Jun ? 19:58:20 10° NW 20:03:32 25° W 20:08:45 10° SW visible
14 Jun ? 18:38:48 10° N 18:45:22 65° E 18:51:56 10° SSE visible
15 Jun ? 19:05:53 10° NNW 19:12:23 59° W 19:18:53 10° S visible
16 Jun ? 19:33:59 10° NW 19:39:23 27° W 19:44:46 10° SSW visible
17 Jun ? 18:14:42 10° N 18:21:14 60° E 18:27:42 10° SSE visible
17 Jun ? 20:04:52 10° W 20:06:23 11° W 20:07:55 10° WSW visible
18 Jun ? 18:41:41 10° NNW 18:48:14 64° W 18:54:45 10° S visible
